Volver al catálogo

COSMOS 1348 DEB

LostHEO
NORAD 32776·DEBRIS·🇷🇺 Russia

Lanzado Apr 7, 1982 desde Plesetsk Cosmodrome

Loading…

Próximos Pases (próximas 24 horas)

TLE

ObsoletoSource: Space-Track

Época: Sep 2, 2010, 18:09 UTC

1 32776U 82029K   10245.75632578  .00000294  00000-0  10000-3 0  9990
2 32776  71.9021   0.8627 5158472 144.1907 264.7921  1.98542550 48460

Sigue COSMOS 1348 DEB en tiempo real con AllMySat

Download on the App Store